Hourly Weather Bolshie Polyany

Today, 17 June, Thursday

Time Temperature Precipitation Wind Pressure Humidity
00:00 +17°C° 0 mm 3 mps 748 mmHg 92%
01:00 +16°C° 0 mm 3 mps 749 mmHg 93%
02:00 +16°C° 0 mm 3 mps 749 mmHg 94%
03:00 +14°C° 0 mm 3 mps 750 mmHg 95%
04:00 +16°C° 0 mm 3 mps 750 mmHg 93%
05:00 +16°C° 0 mm 3 mps 750 mmHg 92%
06:00 +17°C° 0 mm 3 mps 751 mmHg 90%
07:00 +18°C° 0 mm 3 mps 751 mmHg 82%
08:00 +20°C° 0 mm 3 mps 752 mmHg 74%
09:00 +21°C° 0 mm 3 mps 752 mmHg 65%
10:00 +22°C° 0 mm 3 mps 752 mmHg 61%
11:00 +22°C° 0 mm 3 mps 753 mmHg 57%
12:00 +23°C° 0 mm 4 mps 753 mmHg 53%
13:00 +23°C° 0 mm 4 mps 753 mmHg 54%
14:00 +23°C° 0 mm 4 mps 753 mmHg 54%
15:00 +23°C° 0 mm 4 mps 753 mmHg 55%
16:00 +23°C° 0 mm 4 mps 753 mmHg 60%
17:00 +22°C° 0 mm 3 mps 753 mmHg 65%
18:00 +22°C° 0 mm 3 mps 753 mmHg 70%
19:00 +20°C° 0 mm 3 mps 754 mmHg 74%
20:00 +18°C° 0 mm 3 mps 754 mmHg 78%
21:00 +17°C° 0 mm 2 mps 754 mmHg 82%
22:00 +16°C° 0 mm 3 mps 755 mmHg 81%
23:00 +14°C° 0 mm 3 mps 755 mmHg 79%

Tomorrow, 18 June, Friday

Time Temperature Precipitation Wind Pressure Humidity
00:00 +13°C° 0 mm 3 mps 755 mmHg 78%
01:00 +13°C° 0 mm 3 mps 755 mmHg 78%
02:00 +13°C° 0 mm 3 mps 756 mmHg 79%
03:00 +12°C° 0 mm 3 mps 756 mmHg 79%
04:00 +13°C° 0 mm 3 mps 756 mmHg 80%
05:00 +14°C° 0 mm 3 mps 757 mmHg 80%
06:00 +14°C° 0 mm 3 mps 757 mmHg 81%
07:00 +16°C° 0 mm 3 mps 757 mmHg 75%
08:00 +18°C° 0 mm 4 mps 758 mmHg 69%
09:00 +19°C° 0 mm 4 mps 758 mmHg 63%
10:00 +20°C° 0 mm 4 mps 758 mmHg 61%
11:00 +20°C° 0 mm 4 mps 758 mmHg 58%
12:00 +21°C° 0 mm 4 mps 758 mmHg 56%
13:00 +21°C° 0 mm 4 mps 758 mmHg 55%
14:00 +21°C° 0 mm 4 mps 758 mmHg 55%
15:00 +21°C° 0 mm 3 mps 758 mmHg 54%
16:00 +21°C° 0 mm 3 mps 758 mmHg 58%
17:00 +21°C° 0 mm 2 mps 758 mmHg 63%
18:00 +20°C° 0 mm 2 mps 758 mmHg 67%
19:00 +19°C° 0 mm 2 mps 758 mmHg 71%
20:00 +17°C° 0 mm 2 mps 758 mmHg 75%
21:00 +15°C° 0 mm 1 mps 758 mmHg 79%
22:00 +15°C° 0 mm 1 mps 758 mmHg 79%
23:00 +14°C° 0 mm 1 mps 758 mmHg 79%

Day after tomorrow, 19 June, Saturday

Time Temperature Precipitation Wind Pressure Humidity
00:00 +14°C° 0 mm 1 mps 759 mmHg 80%
01:00 +13°C° 0 mm 1 mps 759 mmHg 81%
02:00 +13°C° 0 mm 1 mps 759 mmHg 82%
03:00 +12°C° 0 mm 1 mps 759 mmHg 83%
04:00 +13°C° 0 mm 1 mps 759 mmHg 81%
05:00 +14°C° 0 mm 1 mps 759 mmHg 80%
06:00 +15°C° 0 mm 1 mps 759 mmHg 78%
07:00 +18°C° 0 mm 1 mps 759 mmHg 73%
08:00 +20°C° 0 mm 1 mps 759 mmHg 69%
09:00 +21°C° 0 mm 1 mps 759 mmHg 64%
10:00 +22°C° 0 mm 1 mps 759 mmHg 61%
11:00 +23°C° 0 mm 1 mps 759 mmHg 58%
12:00 +24°C° 0 mm 2 mps 758 mmHg 54%
13:00 +25°C° 0 mm 2 mps 758 mmHg 54%
14:00 +25°C° 0 mm 2 mps 758 mmHg 54%
15:00 +25°C° 0 mm 2 mps 757 mmHg 54%
16:00 +25°C° 0 mm 2 mps 757 mmHg 59%
17:00 +25°C° 0 mm 2 mps 757 mmHg 64%
18:00 +25°C° 0 mm 2 mps 757 mmHg 69%
19:00 +23°C° 0 mm 2 mps 757 mmHg 73%
20:00 +20°C° 0 mm 2 mps 757 mmHg 78%
21:00 +18°C° 0 mm 2 mps 757 mmHg 82%
22:00 +17°C° 0 mm 2 mps 757 mmHg 83%
23:00 +17°C° 0 mm 2 mps 757 mmHg 85%

20 June, Sunday

Time Temperature Precipitation Wind Pressure Humidity
00:00 +16°C° 0 mm 2 mps 757 mmHg 87%
01:00 +16°C° 0 mm 2 mps 757 mmHg 88%
02:00 +15°C° 0 mm 2 mps 757 mmHg 88%
03:00 +15°C° 0 mm 2 mps 757 mmHg 89%
04:00 +16°C° 0 mm 2 mps 757 mmHg 87%
05:00 +18°C° 0 mm 1 mps 757 mmHg 85%
06:00 +19°C° 0 mm 1 mps 757 mmHg 82%
07:00 +21°C° 0 mm 1 mps 757 mmHg 77%
08:00 +22°C° 0 mm 1 mps 757 mmHg 73%
09:00 +24°C° 0 mm 1 mps 756 mmHg 68%
10:00 +25°C° 0 mm 1 mps 756 mmHg 65%
11:00 +26°C° 0 mm 1 mps 756 mmHg 62%
12:00 +27°C° 0 mm 1 mps 756 mmHg 59%
13:00 +27°C° 0 mm 1 mps 756 mmHg 58%
14:00 +28°C° 0 mm 1 mps 756 mmHg 57%
15:00 +28°C° 0 mm 1 mps 755 mmHg 56%
16:00 +28°C° 0 mm 1 mps 755 mmHg 60%
17:00 +28°C° 0 mm 1 mps 755 mmHg 64%
18:00 +28°C° 0 mm 1 mps 755 mmHg 67%
19:00 +26°C° 0 mm 1 mps 755 mmHg 71%
20:00 +24°C° 0 mm 1 mps 755 mmHg 75%
21:00 +22°C° 0 mm 1 mps 755 mmHg 78%
22:00 +21°C° 0 mm 1 mps 755 mmHg 79%
23:00 +19°C° 0 mm 0 mps 755 mmHg 80%

21 June, Monday

Time Temperature Precipitation Wind Pressure Humidity
00:00 +18°C° 0 mm 0 mps 755 mmHg 82%
01:00 +18°C° 0 mm 0 mps 755 mmHg 82%
02:00 +17°C° 0 mm 0 mps 755 mmHg 83%
03:00 +17°C° 0 mm 0 mps 755 mmHg 84%
04:00 +18°C° 0 mm 0 mps 755 mmHg 83%
05:00 +19°C° 0 mm 0 mps 755 mmHg 81%
06:00 +20°C° 0 mm 0 mps 755 mmHg 79%
07:00 +21°C° 0 mm 0 mps 755 mmHg 76%
08:00 +23°C° 0 mm 0 mps 755 mmHg 72%
09:00 +24°C° 0 mm 0 mps 755 mmHg 69%
10:00 +27°C° 0 mm 1 mps 755 mmHg 65%
11:00 +28°C° 0 mm 1 mps 754 mmHg 61%
12:00 +29°C° 0 mm 1 mps 754 mmHg 57%
13:00 +29°C° 0 mm 1 mps 754 mmHg 56%
14:00 +29°C° 0 mm 1 mps 754 mmHg 56%
15:00 +29°C° 0 mm 1 mps 754 mmHg 56%
16:00 +29°C° 0 mm 1 mps 754 mmHg 60%
17:00 +29°C° 0 mm 1 mps 753 mmHg 65%
18:00 +28°C° 0 mm 1 mps 753 mmHg 70%
19:00 +26°C° 0 mm 1 mps 753 mmHg 73%
20:00 +25°C° 0 mm 1 mps 753 mmHg 76%
21:00 +23°C° 0 mm 1 mps 753 mmHg 78%
22:00 +20°C° 0 mm 0 mps 753 mmHg 80%
23:00 +20°C° 0 mm 0 mps 753 mmHg 81%

22 June, Tuesday

Time Temperature Precipitation Wind Pressure Humidity
00:00 +20°C° 0 mm 0 mps 753 mmHg 82%
01:00 +19°C° 0 mm 0 mps 753 mmHg 83%
02:00 +19°C° 0 mm 0 mps 753 mmHg 84%
03:00 +18°C° 0 mm 0 mps 753 mmHg 84%
04:00 +19°C° 0 mm 0 mps 754 mmHg 83%
05:00 +20°C° 0 mm 0 mps 754 mmHg 81%
06:00 +21°C° 0 mm 0 mps 754 mmHg 80%
07:00 +22°C° 0 mm 0 mps 754 mmHg 76%
08:00 +24°C° 0 mm 0 mps 754 mmHg 72%
09:00 +25°C° 0 mm 0 mps 754 mmHg 68%
10:00 +26°C° 0 mm 0 mps 754 mmHg 64%
11:00 +27°C° 0 mm 0 mps 754 mmHg 60%
12:00 +28°C° 0 mm 0 mps 754 mmHg 56%
13:00 +28°C° 0 mm 0 mps 754 mmHg 55%
14:00 +28°C° 0 mm 0 mps 754 mmHg 53%
15:00 +30°C° 0 mm 1 mps 754 mmHg 52%
16:00 +30°C° 0 mm 1 mps 753 mmHg 57%
17:00 +30°C° 0 mm 1 mps 753 mmHg 61%
18:00 +28°C° 0 mm 0 mps 753 mmHg 66%
19:00 +26°C° 0 mm 0 mps 753 mmHg 69%
20:00 +24°C° 0 mm 0 mps 753 mmHg 72%
21:00 +22°C° 0 mm 0 mps 753 mmHg 74%
22:00 +22°C° 0 mm 0 mps 753 mmHg 76%
23:00 +21°C° 0 mm 0 mps 754 mmHg 78%
Show more